AirNav   Air Wisconsin Airman Trainee
 
 414 users online  

AL88 Ban Farm Airport
Lillian, Alabama, USA

GOING TO LILLIAN?


FAA INFORMATION EFFECTIVE 28 MARCH 2019

Location

FAA Identifier: AL88
Lat/Long: 30-25-35.7120N / 087-28-14.9260W
30-25.595200N / 087-28.248767W
30.4265867 / -87.4708128
(estimated)
Elevation: 80 ft. / 24 m (estimated)
Variation: 01E (1985)
From city: 3 miles NW of LILLIAN, AL
Time zone: UTC -5 (UTC -6 during Standard Time)
Zip code: 36530

Airport Operations

Airport use: Private use. Permission required prior to landing
Activation date: 06/1991
Control tower: no
ARTCC: JACKSONVILLE CENTER
FSS: ANNISTON FLIGHT SERVICE STATION
Attendance: CONTINUOUS
Wind indicator: yes
Segmented circle: no

Airport Communications

WX AWOS-3PT at JKA (13 nm SW): 134.525 (251-968-7581)
WX ASOS at PNS (15 nm E): PHONE 850-436-4799

Nearby radio navigation aids

VOR radial/distance  VOR name  Freq  Var
NUNr248/(7.5)SAUFLEY VOR108.8001E
BFMr106/32.2BROOKLEY VORTAC112.8004E

 
NDB name  Hdg/Dist  Freq  Var  ID
PICKENS270/15.132602WPKZ .--. -.- --..

Airport Services

Runway Information

Runway 9/27

Dimensions: 1320 x 95 ft. / 402 x 29 m
Surface: turf
RUNWAY 9  RUNWAY 27
Traffic pattern: rightleft

Airport Ownership and Management from official FAA records

Ownership: Privately-owned
Owner: WILLIAM T. MILES
P.O. BOX 329
LILLIAN, AL 36549
Phone (251) 979-0809
Manager: WILLIAM T. MILES
P.O. BOX 329
LILLIAN, AL 36549
Phone (251) 979-0809

Airport Operational Statistics

Aircraft based on the field: 1
Single engine airplanes: 1
    

Additional Remarks

OWNER DESIRES ARPT NOT BE CHARTED.
DAY VFR ONLY - OWNER ONLY ALLOWED

Instrument Procedures

There are no published instrument procedures at AL88.

Some nearby airports with instrument procedures:

KNPA - Pensacola Naval Air Station/Forrest Sherman Field (9 nm SE)
5R4 - Foley Municipal Airport (12 nm W)
KJKA - Jack Edwards National Airport (13 nm SW)
KPNS - Pensacola International Airport (15 nm E)
KCQF - H L Sonny Callahan Airport (21 nm W)
 
Loc | Ops | Rwys | IFR | FBO | Links
Com | Nav | Svcs | Stats | Notes

Continental Motors
AirBoss

 
Area around AL88 (Ban Farm Airport)
 
Road maps at: MapQuest Bing Google
 
Aerial photo
No photo
 
Sectional chart

 
Airport distance calculator
Flying to Ban Farm Airport? Find the distance to fly.

From to AL88

Sunrise and sunset
Times for 23-Apr-2019
 Local
(UTC-5)
 Zulu
(UTC)
Morning civil twilight05:5010:50
Sunrise06:1511:15
Sunset19:2100:21
Evening civil twilight19:4600:46

Current date and time
Zulu (UTC)  23-Apr-2019 09:56:16
Local (UTC-5)  23-Apr-2019 04:56:16
 
METAR
KNPA 
9nm SE 
230856Z AUTO 00000KT 10SM CLR 11/11 A3010 RMK AO2 SLP193 T01060106 56012 $
KJKA 
13nm SW 
230935Z AUTO 00000KT 4SM BR CLR 10/10 A3010 RMK AO2 T01000100
KPNS 
15nm E 
230853Z AUTO 00000KT 10SM CLR 14/13 A3010 RMK AO2 SLP194 T01440133 56012
TAF
KNPA 
9nm SE 
2307/2407 VRB04KT 9999 SCT180 QNH3007INS BECMG 2320/2322 17009KT 9999 FEW20 QNH3010INS BECMG 2403/2405 VRB05KT 9999 FEW180 BKN250 QNH3001INS AUTOMATED SENSOR METWATCH 2307 TIL 2311 T10/2309Z T24/2323Z COR0735 FN00210
KPNS 
15nm E 
230520Z 2306/2406 00000KT P6SM SKC FM231600 12006KT P6SM SCT250
NOTAMs
Click for the latest NOTAMs
NOTAMs are issued by the DoD/FAA and will open in a separate window not controlled by AirNav.

 

 
 

Would you like to see your business listed on this page?

 If your business provides an interesting product or service to pilots, flight crews, aircraft, or users of the Ban Farm Airport, you should consider listing it here.  To start the listing process, click on the button below
 
Add a business
 

Other Pages about Ban Farm Airport

Update a link
 
Copyright © AirNav, LLC. All rights reserved. Privacy Policy  Contact